Location: Trébons-de-Luchon
(42.8036°N, 0.5656°E)
Time: 01:07:14
(UTC+02:00)

ISS - Visible Passes

Search period start: 22 October 2019 00:00
Search period end: 31 October 2019 23:00
Orbit: 411 x 421 km, 51.6° (Epoch: 21 October)

Date Brightness Start Highest point End Pass type
(mag) Time Alt. Az. Time Alt. Az. Time Alt. Az.
23 Oct -1.2 07:35:10 10° S 07:37:50 22° SE 07:40:30 10° E visible
24 Oct -0.7 06:47:47 10° SSE 06:49:26 13° SE 06:51:05 10° E visible
25 Oct -3.2 07:33:51 10° SW 07:37:10 59° SE 07:40:29 10° ENE visible
26 Oct -2.3 06:46:44 19° SSW 06:48:38 34° SE 06:51:43 10° ENE visible
27 Oct -1.2 05:00:46 19° ESE 05:00:46 19° ESE 05:02:43 10° E visible
27 Oct -3.6 06:33:42 12° WSW 06:36:39 55° NNW 06:39:58 10° NE visible
28 Oct -3.9 05:47:33 65° WSW 05:48:00 88° NNW 05:51:22 10° ENE visible
29 Oct -1.3 05:01:14 23° ENE 05:01:14 23° ENE 05:02:41 10° ENE visible
29 Oct -2.6 06:34:09 16° WNW 06:36:16 29° NNW 06:39:16 10° NE visible
30 Oct -3.0 05:47:44 39° NNW 05:47:44 39° NNW 05:50:42 10° NE visible
31 Oct -1.0 05:01:13 17° NE 05:01:13 17° NE 05:02:06 10° NE visible
31 Oct -2.0 06:34:07 14° NW 06:36:00 20° N 06:38:36 10° NE visible
